Location: Piotrkow Trybunalski
(51.4000°N, 19.6830°E)
Time: 15:48:13
(UTC+01:00)

Vanguard 2 - Pass Details

Date: 10 February 2023
Orbit: 553 x 2927 km, 32.9° (Epoch: 24 March)

Event Time Altitude Azimuth Distance (km) Brightness Sun altitude
Rises 19:34:56 0° 220° (SW) 4,462 11.8 -26.5°
Reaches altitude 10° 19:38:07 10° 208° (SSW) 3,815 11.2 -27.0°
Maximum altitude 19:46:28 27° 156° (SSE) 3,388 10.4 -28.3°
Enters shadow 19:47:24 27° 150° (SSE) 3,470 10.4 -28.4°
Drops below altitude 10° 19:57:57 10° 107° (ESE) 5,368 - -30.0°
Sets 20:03:33 0° 98° (E) 6,620 - -30.9°
